Starlink 2481

operational
NORAD ID: 48138 Int'l Des: 2021-027 Owner: SPXS Country: US Constellation: starlink
LEOCIRCULARSTARLINK_TYPE

About Starlink 2481

Description loading...

Live Position

Loading 3D Globe...

Upcoming Passes

Altitude History

Altitude vs Time

uPlot chart will show altitude changes over time

Two-Line Element Set

1 48138U 21027AY 26049.58336806 .00080995 00000-0 27985-2 0 9990
2 48138 53.1521 256.4755 0001420 117.9380 255.1184 15.29241054 5838
Epoch: Feb 18, 2026 • Age: 9 hours

Current Status

Altitude 479.3 km
Velocity 7.63 km/s
Sub-Earth Point -0.13°S, 115.32°E
Launch Date Apr 7, 2021
Age 4.8 years
Type internet

Technical Details

Classification Payload
Mass 260.00 kg
Dry Mass 248.00 kg
Total Mass 260.00 kg
Length 0.20 m
Diameter 2.80 m
Span 9.00 m
Shape Box + pan
Manufacturer SPXS
Bus Type Starlink
Phase Status In Orbit
Owner/State SPXS/US

Large Constellations

Loading constellations...